AirNav   TITAN Aviation Fuels
 
 707 users online  

SC23 Eagles Nest-Fairview Airpark
Pelion, South Carolina, USA

GOING TO PELION?


FAA INFORMATION EFFECTIVE 11 AUGUST 2022

Location

FAA Identifier: SC23
Lat/Long: 33-45-50.5380N 081-21-31.3660W
33-45.842300N 081-21.522767W
33.7640383,-81.3587128
(estimated)
Elevation: 460 ft. / 140 m (estimated)
Variation: 04W (1985)
From city: 6 miles W of PELION, SC
Time zone: UTC -4 (UTC -5 during Standard Time)
Zip code: 29070

Airport Operations

Airport use: Private use. Permission required prior to landing
Activation date: 08/1966
Control tower: no
ARTCC: JACKSONVILLE CENTER
FSS: ANDERSON FLIGHT SERVICE STATION
Attendance: CONTINUOUS
Wind indicator: yes
Segmented circle: no

Airport Communications

WX ASOS at CAE (16 nm NE): 120.15 (803-822-4168)
WX AWOS-3 at AIK (18 nm SW): 118.025 (803-643-8664)

Nearby radio navigation aids

VOR radial/distance  VOR name  Freq  Var
CAEr252/16.2COLUMBIA VORTAC114.7002W
MMTr259/29.3MC ENTIRE VORTAC113.2008W

 
NDB name  Hdg/Dist  Freq  Var  ID
AIKEN073/17.334706WAIK .- .. -.-
ENOREE164/35.627807WEOE . --- .
EMORY064/36.738504WEMR . -- .-.

Airport Services

Airframe service: NONE
Powerplant service: NONE

Runway Information

Runway 2/20

Dimensions: 2700 x 180 ft. / 823 x 55 m
Surface: turf
RUNWAY 2  RUNWAY 20
Traffic pattern: leftleft
Obstructions: treestrees

Runway 3/21

Dimensions: 1500 x 200 ft. / 457 x 61 m
Surface: turf
RUNWAY 3  RUNWAY 21
Traffic pattern: leftleft
Obstructions: treestrees

Airport Ownership and Management from official FAA records

Ownership: Privately-owned
Owner: KAREN MAGILL
2724 KILLIAN ROAD
EDGEMOOR, SC 29712
Phone 704-941-9915
Manager: KAREN MAGILL
4577 CALKS FERRY RD
LEESVILLE, SC 29070
Phone 704-941-9915

Airport Operational Statistics

Aircraft based on the field: 2
Single engine airplanes: 2
    

Additional Remarks

FOR CD CTC COLUMBIA APCH AT 803-822-5242 OR 803-822-5040.

Instrument Procedures

There are no published instrument procedures at SC23.

Some nearby airports with instrument procedures:

6J0 - Lexington County Airport (6 nm E)
KCAE - Columbia Metro Airport (16 nm NE)
KXNO - North Air Force Auxiliary Field (17 nm SE)
KAIK - Aiken Regional Airport (18 nm SW)
KCUB - Jim Hamilton L B Owens Airport (22 nm NE)
 
Loc | Ops | Rwys | IFR | FBO | Links
Com | Nav | Svcs | Stats | Notes
Area around SC23 (Eagles Nest-Fairview Airpark)
 
Road maps at: MapQuest Bing Google
 
Aerial photo
No photo
 
Sectional chart

 
Airport distance calculator
Flying to Eagles Nest-Fairview Airpark? Find the distance to fly.

From to SC23

Sunrise and sunset
Times for 15-Aug-2022
 Local
(UTC-4)
 Zulu
(UTC)
Morning civil twilight06:2210:22
Sunrise06:4810:48
Sunset20:1100:11
Evening civil twilight20:3800:38

Current date and time
Zulu (UTC)  15-Aug-2022 10:59:57
Local (UTC-4)  15-Aug-2022 06:59:57
 
METAR
KCAE 
16nm NE 
150956Z 25004KT 10SM SCT050 22/18 A2992 RMK AO2 SLP127 T02170178
KXNO 
17nm SE 
150956Z AUTO 00000KT 10SM SCT060 BKN075 21/21 A2994 RMK AO2 SLP138 T02060206 $
KAIK 
18nm SW 
151055Z AUTO 21007KT 10SM CLR 21/17 A2995 RMK AO2 T02100175
KCUB 
22nm NE 
151053Z AUTO 00000KT 10SM FEW060 22/18 A2993 RMK AO2 SLP131 T02170183
KMMT 
30nm E 
150956Z 00000KT 10SM FEW055 BKN080 20/20 A2991 RMK AO2A SLP129 T02040199 FZRANO $
KBNL 
30nm S 
151055Z AUTO 00000KT 10SM CLR 20/18 A2994 RMK AO2
KOGB 
31nm SE 
151053Z AUTO 00000KT 10SM FEW075 20/19 A2994 RMK AO2 SLP136 T02000189
TAF
KCAE 
16nm NE 
150844Z 1509/1606 VRB03KT P6SM SCT050 FM151500 22007KT P6SM SCT040 FM152200 22009KT P6SM VCTS BKN040CB TEMPO 1523/1603 VRB10G20KT 3SM TSRA FM160300 VRB04KT P6SM VCSH BKN040
NOTAMs
Click for the latest NOTAMs
NOTAMs are issued by the DoD/FAA and will open in a separate window not controlled by AirNav.

 

 
 

Would you like to see your business listed on this page?

 If your business provides an interesting product or service to pilots, flight crews, aircraft, or users of the Eagles Nest-Fairview Airpark, you should consider listing it here.  To start the listing process, click on the button below
 
Add a business
 

Other Pages about Eagles Nest-Fairview Airpark

Update a link
 
Copyright © AirNav, LLC. All rights reserved. Privacy Policy  Contact